| time (UTC) | temp F | wind direction | speed knots | gust knots | rain 1hr in | rain 24hr in | rain mn in | humidity % | barometer mb |
| 20260505041553 | 58 | 286 | 0.0 | 4.3 | 0.00 | 0.00 | 0.00 | 58 | 1011.0 |
| 20260505040052 | 58 | 234 | 0.0 | 3.5 | 0.00 | 0.00 | 0.00 | 57 | 1010.9 |
| 20260505034554 | 59 | 338 | 0.9 | 2.6 | 0.00 | 0.00 | 0.00 | 56 | 1011.0 |
| 20260505033049 | 59 | 0 | 0.9 | 4.3 | 0.00 | 0.00 | 0.00 | 55 | 1010.8 |
| 20260505031548 | 59 | 0 | 0.9 | 3.5 | 0.00 | 0.00 | 0.00 | 54 | 1010.7 |
| 20260505030049 | 60 | 320 | 0.9 | 5.2 | 0.00 | 0.00 | 0.00 | 53 | 1010.9 |
| 20260505024551 | 60 | 154 | 1.7 | 5.2 | 0.00 | 0.00 | 0.00 | 52 | 1010.8 |
| 20260505023056 | 60 | 204 | 0.9 | 5.2 | 0.00 | 0.00 | 0.00 | 51 | 1010.9 |
| 20260505021549 | 61 | 182 | 0.9 | 3.5 | 0.00 | 0.00 | 0.00 | 50 | 1010.9 |
| 20260505020052 | 62 | 0 | 0.9 | 7.0 | 0.00 | 0.00 | 0.00 | 49 | 1010.8 |
| 20260505014548 | 62 | 247 | 0.9 | 5.2 | 0.00 | 0.00 | 0.00 | 48 | 1010.6 |
| 20260505013044 | 62 | 0 | 0.9 | 3.5 | 0.00 | 0.00 | 0.00 | 48 | 1010.4 |
| 20260505011554 | 63 | 280 | 0.9 | 5.2 | 0.00 | 0.00 | 0.00 | 47 | 1010.0 |
| 20260505010051 | 64 | 251 | 0.9 | 5.2 | 0.00 | 0.00 | 0.00 | 46 | 1009.7 |
| 20260505004552 | 64 | 185 | 1.7 | 5.2 | 0.00 | 0.00 | 0.00 | 44 | 1009.2 |
| 20260505003050 | 65 | 136 | 0.9 | 6.1 | 0.00 | 0.00 | 0.00 | 43 | 1009.0 |
| 20260505001549 | 66 | 30 | 1.7 | 7.8 | 0.00 | 0.00 | 0.00 | 42 | 1008.5 |
| 20260505000055 | 67 | 192 | 0.9 | 6.1 | 0.00 | 0.00 | 0.00 | 39 | 1008.2 |
| 20260504234548 | 68 | 0 | 0.0 | 1.7 | 0.00 | 0.00 | 0.00 | 35 | 1007.9 |
| 20260504233053 | 69 | 157 | 0.0 | 4.3 | 0.00 | 0.00 | 0.00 | 33 | 1007.6 |
| 20260504231548 | 70 | 0 | 0.0 | 2.6 | 0.00 | 0.00 | 0.00 | 33 | 1007.4 |
| 20260504230049 | 70 | 171 | 0.0 | 3.5 | 0.00 | 0.00 | 0.00 | 33 | 1007.1 |
| 20260504224550 | 71 | 196 | 0.0 | 6.1 | 0.00 | 0.00 | 0.00 | 33 | 1007.0 |
| 20260504223049 | 71 | 232 | 1.7 | 6.1 | 0.00 | 0.00 | 0.00 | 32 | 1006.9 |
| 20260504221548 | 71 | 0 | 0.9 | 5.2 | 0.00 | 0.00 | 0.00 | 31 | 1007.0 |
| 20260504220109 | 72 | 166 | 2.6 | 7.0 | 0.00 | 0.00 | 0.00 | 29 | 1006.8 |
| 20260504214551 | 72 | 198 | 0.9 | 7.0 | 0.00 | 0.00 | 0.00 | 31 | 1006.9 |
| 20260504213051 | 73 | 0 | 0.9 | 6.1 | 0.00 | 0.00 | 0.00 | 30 | 1006.8 |
| 20260504211554 | 73 | 151 | 1.7 | 8.7 | 0.00 | 0.00 | 0.00 | 29 | 1006.9 |
| 20260504210045 | 73 | 266 | 2.6 | 7.0 | 0.00 | 0.00 | 0.00 | 29 | 1006.9 |
| 20260504204545 | 72 | 316 | 2.6 | 8.7 | 0.00 | 0.00 | 0.00 | 29 | 1006.9 |
| 20260504203045 | 73 | 183 | 3.5 | 7.8 | 0.00 | 0.00 | 0.00 | 29 | 1006.7 |
| 20260504201551 | 73 | 194 | 1.7 | 11.3 | 0.00 | 0.00 | 0.00 | 27 | 1006.8 |
| 20260504200055 | 73 | 309 | 1.7 | 7.0 | 0.00 | 0.00 | 0.00 | 28 | 1006.9 |
| 20260504194550 | 73 | 178 | 2.6 | 8.7 | 0.00 | 0.00 | 0.00 | 28 | 1006.9 |
| 20260504193050 | 73 | 317 | 1.7 | 8.7 | 0.00 | 0.00 | 0.00 | 28 | 1006.8 |
| 20260504191555 | 73 | 323 | 1.7 | 7.0 | 0.00 | 0.00 | 0.00 | 27 | 1007.0 |
| 20260504190110 | 73 | 206 | 1.7 | 6.1 | 0.00 | 0.00 | 0.00 | 30 | 1007.3 |
| 20260504184610 | 72 | 260 | 2.6 | 9.6 | 0.00 | 0.00 | 0.00 | 28 | 1007.5 |
| 20260504183053 | 71 | 212 | 2.6 | 9.6 | 0.00 | 0.00 | 0.00 | 28 | 1007.5 |
| 20260504181551 | 71 | 297 | 2.6 | 8.7 | 0.00 | 0.00 | 0.00 | 29 | 1007.5 |
| 20260504180059 | 71 | 303 | 2.6 | 13.0 | 0.00 | 0.00 | 0.00 | 30 | 1007.4 |
| 20260504174552 | 70 | 182 | 2.6 | 8.7 | 0.00 | 0.00 | 0.00 | 32 | 1007.8 |
| 20260504173055 | 70 | 284 | 3.5 | 9.6 | 0.00 | 0.00 | 0.00 | 31 | 1007.9 |
| 20260504171551 | 69 | 166 | 2.6 | 8.7 | 0.00 | 0.00 | 0.00 | 33 | 1008.0 |
| 20260504081549 | 44 | 100 | 0.0 | 1.7 | 0.00 | 0.00 | 0.00 | 63 | 1010.8 |